CZ-6A DEB, 60775

Orbit data source: Space-Track

CZ-6A DEB, 60775 is space debris in LEO originally from a launch on Tue, 06 Aug 2024 UTC launched from the Taiyaun Space Center, China (TSC). Debris objects in space refer to the collection of defunct objects orbiting the Earth. Examples of debris include non-operational satellites, rocket bodies, and fragments generated from explosions, collisions, or faulty payload assembly.

Loading next visibility...
Identifier
60775, 2024-140FA
Orbit
LEO
Country
Flag of CNCN / PRC
Related business
Manufacturer
SAST
Mission
Spacecraft
Bus & Motor
Unknown
Mass
Unknown
Launch date (UTC)
2024-08-06 (2 years ago)
Launch vehicle
Unknown
Launch site
Taiyaun Space Center, China (TSC)
Object type
Payload
Rocket body
Debris
Shape & HBR
Unknown shape, 0.1 m
Radar Cross Section
Medium (>0.1 m² and <1 m²)

Expand to show TLE details & history
Last TLE update: 14 hours ago

TLE from 14 hours ago
0 CZ-6A DEB
1 60775U 24140FA  26171.26680323  .00000711  00000-0  29414-3 0  9995
2 60775  89.0730 279.4499 0029046 179.0679 181.0574 14.25404995 96372
Epoch: 2026-06-20T06:24Z
TLE epoch observation values (Epoch: 2026-06-20T06:24:11.799Z)
Latitude
0.00004°
Longitude
-85.08315°
Altitude
831.064 km
Speed
7.427 km/s
True Right ascension
18h 37m 47s
True Declination
0° 00' 00"
Sunlit
Object was in full shadow at epoch
Visualization orbit readout
Latitude
Unknown
Longitude
Unknown
Altitude
Unknown
Speed
Unknown
Apparent Right ascension
Unknown
Apparent Declination
Unknown
Sunlit
N/A
Visualization observer readout
Local Sidereal Time
07:19:06
Azimuth
Unknown
Elevation
Unknown
Doppler factor
Unknown
Orbital elements
Apogee altitude
824.936 km
Perigee altitude
783.213 km
Semi-major axis
7,182.211 km
Eccentricity
0.0029
Inclination
89.073°
RAAN
279.4499°
Arg. of periapsis
179.0679°
True anomaly
181.05128°
Mean anomaly
181.0574°
Eccentric anomaly
181.05434°
Mean motion
3.56579 °/min
Orbital period
100.96 mins
BSTAR
0.00029414
Loading maneuver chart data...
Computing Atmospheric mass density...
Loading historical data...
Loading historical data...
Loading historical data...
Loading historical data...
Loading historical data...
Loading historical data...
Loading historical data...

Documentation

Showing up to 5 results
|